SQ6ELQ-11 Weather Reports


time (UTC)temp
F
wind
direction
speed
knots
gust
knots
rain 1hr
in
rain 24hr
in
rain mn
in
humidity
%
barometer
mb
20260504150346 77 0 0.0 0.0 0.00 0.00 0.00 23 1013.1
20260504140956 74 0 0.0 0.0 0.00 0.00 0.00 25 1013.4
20260504081202 66 0 0.0 0.0 0.00 0.00 0.00 33 1014.7
20260504044959 58 0 0.0 0.0 0.00 0.00 0.00 38 1015.1
20260504043203 58 0 0.0 0.0 0.00 0.00 0.00 38 1014.6
20260504041325 58 0 0.0 0.0 0.00 0.00 0.00 38 1014.3
20260504035421 58 0 0.0 0.0 0.00 0.00 0.00 37 1014.2
20260504033728 58 0 0.0 0.0 0.00 0.00 0.00 37 1014.2
20260504031831 58 0 0.0 0.0 0.00 0.00 0.00 37 1014.0
20260504030033 58 0 0.0 0.0 0.00 0.00 0.00 36 1014.0
20260504024303 58 0 0.0 0.0 0.00 0.00 0.00 36 1014.1
20260504022406 59 0 0.0 0.0 0.00 0.00 0.00 35 1013.9
20260504020520 59 0 0.0 0.0 0.00 0.00 0.00 35 1014.2
20260504014717 59 0 0.0 0.0 0.00 0.00 0.00 34 1014.2
20260504012826 59 0 0.0 0.0 0.00 0.00 0.00 34 1014.3
20260504010851 60 0 0.0 0.0 0.00 0.00 0.00 34 1014.3
20260504005154 59 0 0.0 0.0 0.00 0.00 0.00 34 1014.3
20260504003222 60 0 0.0 0.0 0.00 0.00 0.00 33 1014.1
20260504001522 60 0 0.0 0.0 0.00 0.00 0.00 33 1014.3
20260503235546 60 0 0.0 0.0 0.00 0.00 0.00 33 1014.6
20260503233916 60 0 0.0 0.0 0.00 0.00 0.00 33 1014.6
20260503232103 60 0 0.0 0.0 0.00 0.00 0.00 33 1014.7
20260503230211 60 0 0.0 0.0 0.00 0.00 0.00 34 1014.7
20260503224518 60 0 0.0 0.0 0.00 0.00 0.00 34 1014.8
20260503222821 60 0 0.0 0.0 0.00 0.00 0.00 34 1014.8
20260503221001 61 0 0.0 0.0 0.00 0.00 0.00 33 1014.8
20260503215200 61 0 0.0 0.0 0.00 0.00 0.00 33 1014.9
20260503213233 62 0 0.0 0.0 0.00 0.00 0.00 32 1014.9
20260503211351 62 0 0.0 0.0 0.00 0.00 0.00 32 1014.8
20260503205606 62 0 0.0 0.0 0.00 0.00 0.00 30 1015.0
20260503203915 63 0 0.0 0.0 0.00 0.00 0.00 29 1015.0
20260503202101 63 0 0.0 0.0 0.00 0.00 0.00 29 1015.1
20260503200336 63 0 0.0 0.0 0.00 0.00 0.00 28 1015.2
20260503194348 64 0 0.0 0.0 0.00 0.00 0.00 27 1015.4
20260503192453 64 0 0.0 0.0 0.00 0.00 0.00 27 1015.4
20260503190701 63 0 0.0 0.0 0.00 0.00 0.00 27 1015.2
20260503184756 64 0 0.0 0.0 0.00 0.00 0.00 25 1015.1
20260503183116 65 0 0.0 0.0 0.00 0.00 0.00 24 1014.9
20260503181151 67 0 0.0 0.0 0.00 0.00 0.00 22 1014.9
20260503175353 69 0 0.0 0.0 0.00 0.00 0.00 19 1014.9
20260503173546 71 0 0.0 0.0 0.00 0.00 0.00 18 1014.7
20260503171805 71 0 0.0 0.0 0.00 0.00 0.00 17 1014.7
20260503170120 70 0 0.0 0.0 0.00 0.00 0.00 19 1014.8